Time,TemperatureF,DewpointF,PressureIn,WindDirection,WindDirectionDegrees,WindSpeedMPH,WindSpeedGustMPH,Humidity,HourlyPrecipIn,Conditions,Clouds,dailyrainin,SolarRadiationWatts/m^2,SoftwareType,DateUTC
2013-01-09 00:00:00,39.6,28.4,29.93,North,0,4.0,9.0,64,0.00,,,0.00,0000,Weather View 32 v70,2013-01-09 05:00:00,
2013-01-09 00:01:00,39.5,28.3,29.93,North,6,5.0,9.0,64,0.00,,,0.00,0000,Weather View 32 v70,2013-01-09 05:01:00,
2013-01-09 00:03:00,39.6,28.4,29.93,North,6,5.0,9.0,64,0.00,,,0.00,0000,Weather View 32 v70,2013-01-09 05:03:00,
2013-01-09 00:08:00,39.4,28.2,29.93,North,6,5.0,9.0,64,0.00,,,0.00,0000,Weather View 32 v70,2013-01-09 05:08:00,
2013-01-09 00:13:00,39.3,28.1,29.93,North,6,4.0,9.0,64,0.00,,,0.00,0000,Weather View 32 v70,2013-01-09 05:13:00,
2013-01-09 00:18:00,39.4,28.2,29.92,North,11,6.0,9.0,64,0.00,,,0.00,0000,Weather View 32 v70,2013-01-09 05:18:00,
2013-01-09 00:23:00,39.5,28.3,29.93,NNE,17,6.0,9.0,64,0.00,,,0.00,0000,Weather View 32 v70,2013-01-09 05:23:00,
2013-01-09 00:28:00,39.5,28.3,29.93,NNE,17,6.0,10.0,64,0.00,,,0.00,0000,Weather View 32 v70,2013-01-09 05:28:00,
2013-01-09 00:33:00,39.4,28.2,29.93,NNE,17,6.0,10.0,64,0.00,,,0.00,0000,Weather View 32 v70,2013-01-09 05:33:00,
2013-01-09 00:38:00,39.4,28.2,29.93,NNE,17,7.0,10.0,64,0.00,,,0.00,0000,Weather View 32 v70,2013-01-09 05:38:00,
2013-01-09 00:43:00,39.0,28.2,29.93,North,11,5.0,10.0,65,0.00,,,0.00,0000,Weather View 32 v70,2013-01-09 05:43:00,
2013-01-09 00:48:00,39.0,28.2,29.93,NNE,17,8.0,10.0,65,0.00,,,0.00,0000,Weather View 32 v70,2013-01-09 05:48:00,
2013-01-09 00:53:00,39.1,28.3,29.93,North,6,5.0,10.0,65,0.00,,,0.00,0000,Weather View 32 v70,2013-01-09 05:53:00,
2013-01-09 00:58:00,39.0,28.5,29.93,NNE,17,7.0,10.0,66,0.00,,,0.00,0000,Weather View 32 v70,2013-01-09 05:58:00,
2013-01-09 01:03:00,39.0,28.2,29.93,NNE,17,6.0,10.0,65,0.00,,,0.00,0000,Weather View 32 v70,2013-01-09 06:03:00,
2013-01-09 01:08:00,39.1,28.3,29.93,NNE,23,8.0,10.0,65,0.00,,,0.00,0000,Weather View 32 v70,2013-01-09 06:08:00,
2013-01-09 01:13:00,39.1,28.3,29.93,NNE,28,7.0,12.0,65,0.00,,,0.00,0000,Weather View 32 v70,2013-01-09 06:13:00,
2013-01-09 01:18:00,38.8,28.1,29.93,NNE,23,7.0,12.0,65,0.00,,,0.00,0000,Weather View 32 v70,2013-01-09 06:18:00,
2013-01-09 01:23:00,38.7,28.3,29.92,NNE,17,10.0,12.0,66,0.00,,,0.00,0000,Weather View 32 v70,2013-01-09 06:23:00,
2013-01-09 01:28:00,38.6,28.2,29.92,NNE,17,7.0,12.0,66,0.00,,,0.00,0000,Weather View 32 v70,2013-01-09 06:28:00,
2013-01-09 01:33:00,38.7,28.3,29.93,NNE,17,5.0,12.0,66,0.00,,,0.00,0000,Weather View 32 v70,2013-01-09 06:33:00,
2013-01-09 01:38:00,38.6,28.6,29.93,North,11,6.0,12.0,67,0.00,,,0.00,0000,Weather View 32 v70,2013-01-09 06:38:00,
2013-01-09 01:43:00,38.5,28.1,29.92,NNE,23,8.0,12.0,66,0.00,,,0.00,0000,Weather View 32 v70,2013-01-09 06:43:00,
2013-01-09 01:48:00,38.5,28.1,29.92,North,11,6.0,12.0,66,0.00,,,0.00,0000,Weather View 32 v70,2013-01-09 06:48:00,
2013-01-09 01:53:00,38.6,28.2,29.92,North,11,5.0,12.0,66,0.00,,,0.00,0000,Weather View 32 v70,2013-01-09 06:53:00,
2013-01-09 01:58:00,38.5,28.1,29.92,North,6,4.0,12.0,66,0.00,,,0.00,0000,Weather View 32 v70,2013-01-09 06:58:00,
2013-01-09 02:03:00,38.6,27.8,29.92,North,6,4.0,12.0,65,0.00,,,0.00,0000,Weather View 32 v70,2013-01-09 07:03:00,
2013-01-09 02:08:00,38.3,27.9,29.93,North,6,6.0,12.0,66,0.00,,,0.00,0000,Weather View 32 v70,2013-01-09 07:08:00,
2013-01-09 02:13:00,38.4,28.0,29.92,North,6,5.0,12.0,66,0.00,,,0.00,0000,Weather View 32 v70,2013-01-09 07:13:00,
2013-01-09 02:18:00,38.5,27.7,29.92,North,11,5.0,11.0,65,0.00,,,0.00,0000,Weather View 32 v70,2013-01-09 07:18:00,
2013-01-09 02:23:00,38.5,27.7,29.92,NNE,17,9.0,11.0,65,0.00,,,0.00,0000,Weather View 32 v70,2013-01-09 07:23:00,
2013-01-09 02:28:00,38.6,27.8,29.93,North,11,5.0,10.0,65,0.00,,,0.00,0000,Weather View 32 v70,2013-01-09 07:28:00,
2013-01-09 02:33:00,38.4,27.6,29.93,NNE,17,4.0,10.0,65,0.00,,,0.00,0000,Weather View 32 v70,2013-01-09 07:33:00,
2013-01-09 02:38:00,38.2,27.8,29.94,NNE,17,7.0,10.0,66,0.00,,,0.00,0000,Weather View 32 v70,2013-01-09 07:38:00,
2013-01-09 02:43:00,38.2,28.2,29.93,NNE,17,7.0,10.0,67,0.00,,,0.00,0000,Weather View 32 v70,2013-01-09 07:43:00,
2013-01-09 02:48:00,38.3,27.9,29.93,North,11,6.0,10.0,66,0.00,,,0.00,0000,Weather View 32 v70,2013-01-09 07:48:00,
2013-01-09 02:53:00,38.2,27.8,29.93,North,6,6.0,11.0,66,0.00,,,0.00,0000,Weather View 32 v70,2013-01-09 07:53:00,
2013-01-09 02:58:00,37.8,27.8,29.93,North,6,5.0,11.0,67,0.00,,,0.00,0000,Weather View 32 v70,2013-01-09 07:58:00,
2013-01-09 03:03:00,37.3,28.4,29.93,North,6,7.0,11.0,70,0.00,,,0.00,0000,Weather View 32 v70,2013-01-09 08:03:00,
2013-01-09 03:08:00,36.8,28.6,29.93,NNE,17,7.0,11.0,72,0.00,,,0.00,0000,Weather View 32 v70,2013-01-09 08:08:00,
2013-01-09 03:13:00,36.4,28.9,29.92,NNE,23,8.0,11.0,74,0.00,,,0.00,0000,Weather View 32 v70,2013-01-09 08:13:00,
2013-01-09 03:18:00,36.4,28.9,29.93,NNE,17,6.0,11.0,74,0.00,,,0.00,0000,Weather View 32 v70,2013-01-09 08:18:00,
2013-01-09 03:23:00,36.6,28.7,29.92,NNE,23,8.0,11.0,73,0.00,,,0.00,0000,Weather View 32 v70,2013-01-09 08:23:00,
2013-01-09 03:28:00,36.7,28.2,29.92,NNE,17,8.0,11.0,71,0.00,,,0.00,0000,Weather View 32 v70,2013-01-09 08:28:00,
2013-01-09 03:33:00,37.0,28.1,29.92,North,11,6.0,11.0,70,0.00,,,0.00,0000,Weather View 32 v70,2013-01-09 08:33:00,
2013-01-09 03:38:00,37.4,28.1,29.92,North,6,5.0,11.0,69,0.00,,,0.00,0000,Weather View 32 v70,2013-01-09 08:38:00,
2013-01-09 03:43:00,37.2,27.9,29.92,North,6,6.0,11.0,69,0.00,,,0.00,0000,Weather View 32 v70,2013-01-09 08:43:00,
2013-01-09 03:48:00,37.4,27.8,29.91,North,6,3.0,11.0,68,0.00,,,0.00,0000,Weather View 32 v70,2013-01-09 08:48:00,
2013-01-09 03:53:00,37.2,27.6,29.92,North,6,4.0,11.0,68,0.00,,,0.00,0000,Weather View 32 v70,2013-01-09 08:53:00,
2013-01-09 03:58:00,37.6,27.6,29.91,North,0,5.0,11.0,67,0.00,,,0.00,0000,Weather View 32 v70,2013-01-09 08:58:00,
2013-01-09 04:03:00,37.3,27.3,29.91,North,0,1.0,11.0,67,0.00,,,0.00,0000,Weather View 32 v70,2013-01-09 09:03:00,
2013-01-09 04:08:00,36.1,28.3,29.91,North,0,2.0,11.0,73,0.00,,,0.00,0000,Weather View 32 v70,2013-01-09 09:08:00,
2013-01-09 04:13:00,35.8,28.6,29.92,North,0,0.0,11.0,75,0.00,,,0.00,0000,Weather View 32 v70,2013-01-09 09:13:00,
2013-01-09 04:18:00,35.4,28.9,29.91,North,0,2.0,11.0,77,0.00,,,0.00,0000,Weather View 32 v70,2013-01-09 09:18:00,
2013-01-09 04:23:00,36.5,28.3,29.91,North,0,0.0,10.0,72,0.00,,,0.00,0000,Weather View 32 v70,2013-01-09 09:23:00,
2013-01-09 04:28:00,36.0,28.9,29.92,North,6,1.0,9.0,75,0.00,,,0.00,0000,Weather View 32 v70,2013-01-09 09:28:00,
2013-01-09 04:33:00,35.5,28.3,29.92,North,0,3.0,8.0,75,0.00,,,0.00,0000,Weather View 32 v70,2013-01-09 09:33:00,
2013-01-09 04:38:00,35.6,28.1,29.91,North,6,2.0,8.0,74,0.00,,,0.00,0000,Weather View 32 v70,2013-01-09 09:38:00,
2013-01-09 04:43:00,35.0,27.5,29.91,North,0,0.0,8.0,74,0.00,,,0.00,0000,Weather View 32 v70,2013-01-09 09:43:00,
2013-01-09 04:48:00,35.5,27.3,29.92,North,0,1.0,6.0,72,0.00,,,0.00,0000,Weather View 32 v70,2013-01-09 09:48:00,
2013-01-09 04:53:00,35.6,27.4,29.92,North,6,1.0,5.0,72,0.00,,,0.00,0000,Weather View 32 v70,2013-01-09 09:53:00,
2013-01-09 04:58:00,36.5,27.6,29.91,North,0,2.0,5.0,70,0.00,,,0.00,0000,Weather View 32 v70,2013-01-09 09:58:00,
2013-01-09 05:03:00,36.0,27.2,29.92,North,0,1.0,4.0,70,0.00,,,0.00,0000,Weather View 32 v70,2013-01-09 10:03:00,
2013-01-09 05:08:00,36.4,27.8,29.92,North,6,2.0,4.0,71,0.00,,,0.00,0000,Weather View 32 v70,2013-01-09 10:08:00,
2013-01-09 05:13:00,35.2,27.1,29.92,North,0,0.0,4.0,72,0.00,,,0.00,0000,Weather View 32 v70,2013-01-09 10:13:00,
2013-01-09 05:18:00,34.5,27.7,29.92,North,0,1.0,4.0,76,0.00,,,0.00,0000,Weather View 32 v70,2013-01-09 10:18:00,
2013-01-09 05:23:00,34.3,27.9,29.92,North,0,1.0,4.0,77,0.00,,,0.00,0000,Weather View 32 v70,2013-01-09 10:23:00,
2013-01-09 05:28:00,34.0,27.9,29.92,North,0,1.0,4.0,78,0.00,,,0.00,0000,Weather View 32 v70,2013-01-09 10:28:00,
2013-01-09 05:33:00,34.1,27.6,29.92,North,0,0.0,4.0,77,0.00,,,0.00,0000,Weather View 32 v70,2013-01-09 10:33:00,
2013-01-09 05:38:00,34.3,27.9,29.92,North,0,2.0,4.0,77,0.00,,,0.00,0000,Weather View 32 v70,2013-01-09 10:38:00,
2013-01-09 05:43:00,33.9,30.4,29.91,North,0,3.0,4.0,87,0.00,,,0.00,0000,Weather View 32 v70,2013-01-09 10:43:00,
2013-01-09 05:48:00,34.8,28.9,29.92,North,0,2.0,4.0,79,0.00,,,0.00,0000,Weather View 32 v70,2013-01-09 10:48:00,
2013-01-09 05:53:00,33.1,31.6,29.92,North,0,4.0,5.0,94,0.00,,,0.00,0000,Weather View 32 v70,2013-01-09 10:53:00,
2013-01-09 05:58:00,32.9,32.4,29.92,North,0,3.0,6.0,98,0.00,,,0.00,0000,Weather View 32 v70,2013-01-09 10:58:00,
2013-01-09 06:03:00,32.9,31.9,29.92,North,0,4.0,6.0,96,0.00,,,0.00,0000,Weather View 32 v70,2013-01-09 11:03:00,
2013-01-09 06:08:00,34.2,31.9,29.92,North,0,2.0,6.0,91,0.00,,,0.00,0000,Weather View 32 v70,2013-01-09 11:08:00,
2013-01-09 06:13:00,33.7,31.3,29.92,North,0,3.0,6.0,91,0.00,,,0.00,0000,Weather View 32 v70,2013-01-09 11:13:00,
2013-01-09 06:18:00,33.1,32.1,29.92,North,0,4.0,6.0,96,0.00,,,0.00,0000,Weather View 32 v70,2013-01-09 11:18:00,
2013-01-09 06:23:00,32.4,31.7,29.92,North,0,4.0,6.0,97,0.00,,,0.00,0000,Weather View 32 v70,2013-01-09 11:23:00,
2013-01-09 06:28:00,32.7,32.4,29.92,NE,51,2.0,6.0,99,0.00,,,0.00,0000,Weather View 32 v70,2013-01-09 11:28:00,
2013-01-09 06:33:00,33.8,31.7,29.92,NNE,23,2.0,6.0,92,0.00,,,0.00,0000,Weather View 32 v70,2013-01-09 11:33:00,
2013-01-09 06:38:00,33.8,30.3,29.92,North,0,1.0,6.0,87,0.00,,,0.00,0000,Weather View 32 v70,2013-01-09 11:38:00,
2013-01-09 06:44:00,33.3,31.2,29.93,NE,45,4.0,6.0,92,0.00,,,0.00,0000,Weather View 32 v70,2013-01-09 11:44:00,
2013-01-09 06:49:00,32.3,31.5,29.92,NE,39,4.0,6.0,97,0.00,,,0.00,0000,Weather View 32 v70,2013-01-09 11:49:00,
2013-01-09 06:54:00,32.2,32.0,29.93,North,11,4.0,6.0,99,0.00,,,0.00,0000,Weather View 32 v70,2013-01-09 11:54:00,
2013-01-09 06:59:00,32.2,32.0,29.93,North,11,3.0,6.0,99,0.00,,,0.00,0000,Weather View 32 v70,2013-01-09 11:59:00,
2013-01-09 07:04:00,32.0,32.0,29.93,NE,51,2.0,6.0,100,0.00,,,0.00,0000,Weather View 32 v70,2013-01-09 12:04:00,
2013-01-09 07:09:00,32.0,32.0,29.93,NE,56,2.0,6.0,100,0.00,,,0.00,0000,Weather View 32 v70,2013-01-09 12:09:00,
2013-01-09 07:14:00,32.1,32.1,29.93,NE,45,4.0,6.0,100,0.00,,,0.00,0000,Weather View 32 v70,2013-01-09 12:14:00,
2013-01-09 07:19:00,32.2,32.2,29.93,NE,34,3.0,6.0,100,0.00,,,0.00,0000,Weather View 32 v70,2013-01-09 12:19:00,
2013-01-09 07:24:00,32.1,32.1,29.93,NNE,28,3.0,6.0,100,0.00,,,0.00,0000,Weather View 32 v70,2013-01-09 12:24:00,
2013-01-09 07:29:00,32.3,32.0,29.94,NE,45,3.0,6.0,99,0.00,,,0.00,0000,Weather View 32 v70,2013-01-09 12:29:00,
2013-01-09 07:34:00,32.2,31.7,29.93,ENE,68,4.0,6.0,98,0.00,,,0.00,0008,Weather View 32 v70,2013-01-09 12:34:00,
2013-01-09 07:39:00,32.3,31.8,29.93,NNE,17,5.0,6.0,98,0.00,,,0.00,0016,Weather View 32 v70,2013-01-09 12:39:00,
2013-01-09 07:44:00,32.5,32.0,29.93,North,0,5.0,6.0,98,0.00,,,0.00,0024,Weather View 32 v70,2013-01-09 12:44:00,
2013-01-09 07:49:00,32.9,32.1,29.92,ENE,62,3.0,6.0,97,0.00,,,0.00,0024,Weather View 32 v70,2013-01-09 12:49:00,
2013-01-09 07:54:00,32.2,31.7,29.93,NNE,17,5.0,6.0,98,0.00,,,0.00,0032,Weather View 32 v70,2013-01-09 12:54:00,
2013-01-09 07:59:00,32.2,32.0,29.93,North,354,4.0,6.0,99,0.00,,,0.00,0032,Weather View 32 v70,2013-01-09 12:59:00,
2013-01-09 08:04:00,32.2,31.7,29.93,North,354,1.0,6.0,98,0.00,,,0.00,0032,Weather View 32 v70,2013-01-09 13:04:00,
2013-01-09 08:09:00,32.4,31.9,29.93,North,354,2.0,6.0,98,0.00,,,0.00,0048,Weather View 32 v70,2013-01-09 13:09:00,
2013-01-09 08:14:00,33.8,30.9,29.93,North,354,3.0,6.0,89,0.00,,,0.00,0048,Weather View 32 v70,2013-01-09 13:14:00,
2013-01-09 08:19:00,33.2,31.7,29.93,North,354,1.0,6.0,94,0.00,,,0.00,0056,Weather View 32 v70,2013-01-09 13:19:00,
2013-01-09 08:24:00,33.2,31.4,29.93,North,354,2.0,6.0,93,0.00,,,0.00,0056,Weather View 32 v70,2013-01-09 13:24:00,
2013-01-09 08:29:00,32.9,31.6,29.94,North,354,3.0,6.0,95,0.00,,,0.00,0064,Weather View 32 v70,2013-01-09 13:29:00,
2013-01-09 08:34:00,33.0,31.7,29.94,North,354,1.0,6.0,95,0.00,,,0.00,0072,Weather View 32 v70,2013-01-09 13:34:00,
2013-01-09 08:39:00,33.2,31.9,29.94,North,354,1.0,6.0,95,0.00,,,0.00,0088,Weather View 32 v70,2013-01-09 13:39:00,
2013-01-09 08:44:00,33.4,32.2,29.93,North,354,1.0,6.0,95,0.00,,,0.00,0096,Weather View 32 v70,2013-01-09 13:44:00,
2013-01-09 08:49:00,33.8,32.2,29.93,North,354,2.0,6.0,94,0.00,,,0.00,0104,Weather View 32 v70,2013-01-09 13:49:00,
2013-01-09 08:54:00,34.1,31.7,29.93,North,354,1.0,6.0,91,0.00,,,0.00,0112,Weather View 32 v70,2013-01-09 13:54:00,
2013-01-09 08:59:00,34.5,32.1,29.93,North,354,2.0,5.0,91,0.00,,,0.00,0128,Weather View 32 v70,2013-01-09 13:59:00,
2013-01-09 09:04:00,35.1,32.5,29.93,North,354,1.0,4.0,90,0.00,,,0.00,0144,Weather View 32 v70,2013-01-09 14:04:00,
2013-01-09 09:09:00,35.5,32.0,29.93,North,354,1.0,4.0,87,0.00,,,0.00,0152,Weather View 32 v70,2013-01-09 14:09:00,
2013-01-09 09:14:00,35.9,31.2,29.93,North,354,1.0,4.0,83,0.00,,,0.00,0152,Weather View 32 v70,2013-01-09 14:14:00,
2013-01-09 09:20:00,36.4,31.7,29.93,North,354,1.0,4.0,83,0.00,,,0.00,0168,Weather View 32 v70,2013-01-09 14:20:00,
2013-01-09 09:25:00,36.6,31.0,29.93,North,354,1.0,4.0,80,0.00,,,0.00,0184,Weather View 32 v70,2013-01-09 14:25:00,
2013-01-09 09:30:00,36.7,32.3,29.93,North,354,2.0,4.0,84,0.00,,,0.00,0200,Weather View 32 v70,2013-01-09 14:30:00,
2013-01-09 09:35:00,36.6,33.1,29.93,North,354,2.0,3.0,87,0.00,,,0.00,0240,Weather View 32 v70,2013-01-09 14:35:00,
2013-01-09 09:40:00,37.9,33.8,29.93,North,354,1.0,3.0,85,0.00,,,0.00,0264,Weather View 32 v70,2013-01-09 14:40:00,
2013-01-09 09:45:00,39.2,33.8,29.92,North,354,1.0,3.0,81,0.00,,,0.00,0280,Weather View 32 v70,2013-01-09 14:45:00,
2013-01-09 09:50:00,39.6,33.3,29.91,North,354,1.0,3.0,78,0.00,,,0.00,0280,Weather View 32 v70,2013-01-09 14:50:00,
2013-01-09 09:55:00,40.5,33.9,29.91,North,354,0.0,3.0,77,0.00,,,0.00,0272,Weather View 32 v70,2013-01-09 14:55:00,
2013-01-09 10:00:00,40.2,33.5,29.91,North,354,1.0,3.0,77,0.00,,,0.00,0272,Weather View 32 v70,2013-01-09 15:00:00,
2013-01-09 10:05:00,37.8,31.9,29.90,North,354,3.0,3.0,79,0.00,,,0.00,0232,Weather View 32 v70,2013-01-09 15:05:00,
2013-01-09 10:10:00,38.7,33.4,29.90,North,354,0.0,3.0,81,0.00,,,0.00,0256,Weather View 32 v70,2013-01-09 15:10:00,
2013-01-09 10:15:00,39.9,33.9,29.89,North,354,2.0,3.0,79,0.00,,,0.00,0240,Weather View 32 v70,2013-01-09 15:15:00,
2013-01-09 10:19:00,37.0,30.8,29.88,North,354,3.0,4.0,78,0.00,,,0.00,0208,Weather View 32 v70,2013-01-09 15:19:00,
2013-01-09 10:24:00,36.5,31.5,29.88,North,354,2.0,4.0,82,0.00,,,0.00,0200,Weather View 32 v70,2013-01-09 15:24:00,
2013-01-09 10:29:00,37.0,31.1,29.88,North,354,5.0,6.0,79,0.00,,,0.00,0280,Weather View 32 v70,2013-01-09 15:29:00,
2013-01-09 10:34:00,37.7,31.5,29.88,North,349,4.0,6.0,78,0.00,,,0.00,0304,Weather View 32 v70,2013-01-09 15:34:00,
2013-01-09 10:39:00,39.4,33.7,29.87,North,349,3.0,6.0,80,0.00,,,0.00,0288,Weather View 32 v70,2013-01-09 15:39:00,
2013-01-09 10:45:00,40.6,33.7,29.86,North,349,2.0,6.0,76,0.00,,,0.00,0280,Weather View 32 v70,2013-01-09 15:45:00,
2013-01-09 10:50:00,38.8,31.6,29.85,North,349,3.0,6.0,75,0.00,,,0.00,0264,Weather View 32 v70,2013-01-09 15:50:00,
2013-01-09 10:55:00,38.4,32.1,29.85,North,349,2.0,6.0,78,0.00,,,0.00,0320,Weather View 32 v70,2013-01-09 15:55:00,
2013-01-09 11:00:00,38.3,32.0,29.83,North,349,3.0,6.0,78,0.00,,,0.00,0240,Weather View 32 v70,2013-01-09 16:00:00,
2013-01-09 11:05:00,38.4,32.7,29.83,North,349,4.0,6.0,80,0.00,,,0.00,0280,Weather View 32 v70,2013-01-09 16:05:00,
2013-01-09 11:10:00,38.2,31.6,29.83,NNW,343,4.0,6.0,77,0.00,,,0.00,0224,Weather View 32 v70,2013-01-09 16:10:00,
2013-01-09 11:15:00,39.5,31.9,29.83,NNW,343,4.0,6.0,74,0.00,,,0.00,0216,Weather View 32 v70,2013-01-09 16:15:00,
2013-01-09 11:20:00,40.9,32.5,29.83,NNW,343,4.0,7.0,72,0.00,,,0.00,0216,Weather View 32 v70,2013-01-09 16:20:00,
2013-01-09 11:25:00,41.4,32.4,29.84,NNW,343,6.0,7.0,70,0.00,,,0.00,0208,Weather View 32 v70,2013-01-09 16:25:00,
2013-01-09 11:30:00,42.0,32.5,29.83,NNW,343,4.0,8.0,69,0.00,,,0.00,0160,Weather View 32 v70,2013-01-09 16:30:00,
2013-01-09 11:35:00,42.6,33.1,29.84,North,354,2.0,8.0,69,0.00,,,0.00,0144,Weather View 32 v70,2013-01-09 16:35:00,
2013-01-09 11:40:00,40.1,31.4,29.84,NNE,23,9.0,10.0,71,0.00,,,0.00,0128,Weather View 32 v70,2013-01-09 16:40:00,
2013-01-09 11:45:00,38.8,31.6,29.83,North,11,6.0,10.0,75,0.00,,,0.00,0144,Weather View 32 v70,2013-01-09 16:45:00,
2013-01-09 11:50:00,38.6,31.4,29.84,NNE,17,7.0,10.0,75,0.00,,,0.00,0136,Weather View 32 v70,2013-01-09 16:50:00,
2013-01-09 11:55:00,38.5,31.3,29.83,NNE,17,7.0,10.0,75,0.00,,,0.00,0136,Weather View 32 v70,2013-01-09 16:55:00,
2013-01-09 12:00:00,38.7,31.5,29.82,NNE,17,6.0,10.0,75,0.00,,,0.00,0144,Weather View 32 v70,2013-01-09 17:00:00,
2013-01-09 12:05:00,39.1,31.5,29.82,NNE,17,5.0,10.0,74,0.00,,,0.00,0136,Weather View 32 v70,2013-01-09 17:05:00,
2013-01-09 12:10:00,39.4,31.8,29.81,North,11,5.0,10.0,74,0.00,,,0.00,0144,Weather View 32 v70,2013-01-09 17:10:00,
2013-01-09 12:15:00,40.4,32.1,29.81,North,6,3.0,10.0,72,0.00,,,0.00,0152,Weather View 32 v70,2013-01-09 17:15:00,
2013-01-09 12:20:00,40.9,32.2,29.80,North,6,3.0,10.0,71,0.00,,,0.00,0120,Weather View 32 v70,2013-01-09 17:20:00,
2013-01-09 12:25:00,41.5,32.5,29.80,North,6,3.0,10.0,70,0.00,,,0.00,0112,Weather View 32 v70,2013-01-09 17:25:00,
2013-01-09 12:30:00,42.1,32.7,29.79,North,6,2.0,10.0,69,0.00,,,0.00,0112,Weather View 32 v70,2013-01-09 17:30:00,
2013-01-09 12:35:00,41.5,32.5,29.79,North,0,1.0,10.0,70,0.00,,,0.00,0112,Weather View 32 v70,2013-01-09 17:35:00,
2013-01-09 12:40:00,42.0,32.5,29.79,North,6,3.0,10.0,69,0.00,,,0.00,0096,Weather View 32 v70,2013-01-09 17:40:00,
2013-01-09 12:45:00,42.4,33.0,29.78,North,0,4.0,9.0,69,0.00,,,0.00,0088,Weather View 32 v70,2013-01-09 17:45:00,
2013-01-09 12:50:00,42.4,32.2,29.79,North,11,5.0,9.0,67,0.00,,,0.00,0064,Weather View 32 v70,2013-01-09 17:50:00,
2013-01-09 12:55:00,42.2,32.0,29.79,North,6,7.0,9.0,67,0.00,,,0.00,0056,Weather View 32 v70,2013-01-09 17:55:00,
2013-01-09 13:00:00,41.2,31.8,29.79,North,0,5.0,9.0,69,0.00,,,0.00,0048,Weather View 32 v70,2013-01-09 18:00:00,
2013-01-09 13:05:00,40.9,31.8,29.79,North,0,6.0,9.0,70,0.00,,,0.00,0048,Weather View 32 v70,2013-01-09 18:05:00,
2013-01-09 13:10:00,40.6,31.6,29.78,North,6,4.0,9.0,70,0.00,,,0.00,0048,Weather View 32 v70,2013-01-09 18:10:00,
2013-01-09 13:15:00,40.1,31.8,29.79,North,6,4.0,9.0,72,0.00,,,0.00,0048,Weather View 32 v70,2013-01-09 18:15:00,
2013-01-09 13:20:00,40.0,31.6,29.79,North,6,4.0,9.0,72,0.00,,,0.00,0056,Weather View 32 v70,2013-01-09 18:20:00,
2013-01-09 13:25:00,40.2,31.9,29.80,North,0,4.0,9.0,72,0.00,,,0.00,0048,Weather View 32 v70,2013-01-09 18:25:00,
2013-01-09 13:30:00,39.7,31.4,29.80,North,6,2.0,9.0,72,0.00,,,0.00,0048,Weather View 32 v70,2013-01-09 18:30:00,
2013-01-09 13:35:00,39.9,31.5,29.81,North,6,5.0,9.0,72,0.00,,,0.00,0040,Weather View 32 v70,2013-01-09 18:35:00,
2013-01-09 13:40:00,40.1,31.8,29.81,North,0,2.0,9.0,72,0.00,,,0.00,0040,Weather View 32 v70,2013-01-09 18:40:00,
2013-01-09 13:41:00,40.1,31.4,29.80,North,6,3.0,9.0,71,0.00,,,0.00,0032,Weather View 32 v70,2013-01-09 18:41:00,
2013-01-09 13:42:00,40.1,31.4,29.80,North,6,4.0,9.0,71,0.00,,,0.00,0032,Weather View 32 v70,2013-01-09 18:42:00,
2013-01-09 13:44:00,39.9,31.2,29.80,North,6,3.0,9.0,71,0.00,,,0.00,0040,Weather View 32 v70,2013-01-09 18:44:00,
2013-01-09 13:48:00,40.1,31.4,29.81,North,6,4.0,9.0,71,0.00,,,0.00,0024,Weather View 32 v70,2013-01-09 18:48:00,
2013-01-09 13:53:00,40.0,31.3,29.80,North,6,3.0,9.0,71,0.00,,,0.00,0016,Weather View 32 v70,2013-01-09 18:53:00,
2013-01-09 13:58:00,40.1,31.4,29.80,North,6,3.0,9.0,71,0.00,,,0.00,0016,Weather View 32 v70,2013-01-09 18:58:00,
2013-01-09 14:03:00,40.0,31.3,29.79,North,6,4.0,7.0,71,0.00,,,0.00,0016,Weather View 32 v70,2013-01-09 19:03:00,
2013-01-09 14:08:00,40.1,31.4,29.79,North,6,3.0,6.0,71,0.00,,,0.00,0032,Weather View 32 v70,2013-01-09 19:08:00,
2013-01-09 14:13:00,40.0,31.3,29.78,North,0,3.0,6.0,71,0.00,,,0.00,0024,Weather View 32 v70,2013-01-09 19:13:00,
2013-01-09 14:18:00,40.1,31.4,29.76,NNW,338,7.0,7.0,71,0.00,,,0.00,0048,Weather View 32 v70,2013-01-09 19:18:00,
2013-01-09 14:23:00,40.6,31.6,29.74,NNW,343,5.0,8.0,70,0.00,,,0.00,0040,Weather View 32 v70,2013-01-09 19:23:00,
2013-01-09 14:28:00,39.7,31.8,29.72,NNW,338,8.0,11.0,73,0.00,,,0.00,0032,Weather View 32 v70,2013-01-09 19:28:00,
2013-01-09 14:33:00,40.2,32.2,29.72,NNW,338,8.0,12.0,73,0.00,,,0.00,0040,Weather View 32 v70,2013-01-09 19:33:00,
2013-01-09 14:38:00,41.7,33.3,29.71,North,349,13.0,13.0,72,0.00,,,0.00,0016,Weather View 32 v70,2013-01-09 19:38:00,
2013-01-09 14:43:00,42.3,33.6,29.70,NNW,343,11.0,14.0,71,0.00,,,0.00,0016,Weather View 32 v70,2013-01-09 19:43:00,
2013-01-09 14:48:00,42.6,33.4,29.67,NNW,343,10.0,19.0,70,0.00,,,0.00,0016,Weather View 32 v70,2013-01-09 19:48:00,
2013-01-09 14:53:00,43.2,34.1,29.68,North,0,14.0,19.0,70,0.00,,,0.00,0008,Weather View 32 v70,2013-01-09 19:53:00,
2013-01-09 14:58:00,43.7,34.5,29.68,NW,326,12.0,19.0,70,0.00,,,0.00,0008,Weather View 32 v70,2013-01-09 19:58:00,
2013-01-09 15:04:00,44.2,34.7,29.70,North,6,8.0,19.0,69,0.00,,,0.00,0016,Weather View 32 v70,2013-01-09 20:04:00,
2013-01-09 15:09:00,44.4,34.4,29.71,NE,34,10.0,19.0,68,0.00,,,0.00,0016,Weather View 32 v70,2013-01-09 20:09:00,
2013-01-09 15:14:00,44.2,34.3,29.71,North,6,3.0,19.0,68,0.00,,,0.00,0008,Weather View 32 v70,2013-01-09 20:14:00,
2013-01-09 15:19:00,43.8,34.3,29.69,North,0,3.0,19.0,69,0.00,,,0.00,0008,Weather View 32 v70,2013-01-09 20:19:00,
2013-01-09 15:24:00,44.0,34.5,29.69,North,0,3.0,19.0,69,0.00,,,0.00,0008,Weather View 32 v70,2013-01-09 20:24:00,
2013-01-09 15:30:00,44.1,34.6,29.69,North,0,2.0,19.0,69,0.00,,,0.00,0008,Weather View 32 v70,2013-01-09 20:30:00,
2013-01-09 15:34:00,44.1,34.6,29.69,North,0,2.0,19.0,69,0.00,,,0.00,0008,Weather View 32 v70,2013-01-09 20:34:00,
2013-01-09 15:39:00,44.0,34.5,29.68,North,0,4.0,19.0,69,0.00,,,0.00,0008,Weather View 32 v70,2013-01-09 20:39:00,
2013-01-09 15:45:00,44.2,34.7,29.69,North,0,5.0,19.0,69,0.00,,,0.00,0016,Weather View 32 v70,2013-01-09 20:45:00,
2013-01-09 15:50:00,44.5,34.9,29.69,North,11,7.0,17.0,69,0.00,,,0.00,0032,Weather View 32 v70,2013-01-09 20:50:00,
2013-01-09 15:54:00,44.5,34.9,29.70,NNE,17,6.0,17.0,69,0.00,,,0.00,0040,Weather View 32 v70,2013-01-09 20:54:00,
2013-01-09 16:00:00,44.0,34.5,29.70,NNE,17,7.0,16.0,69,0.00,,,0.00,0032,Weather View 32 v70,2013-01-09 21:00:00,
2013-01-09 16:05:00,43.9,34.7,29.70,North,6,4.0,14.0,70,0.00,,,0.00,0008,Weather View 32 v70,2013-01-09 21:05:00,
2013-01-09 16:10:00,43.9,34.7,29.70,North,0,6.0,12.0,70,0.00,,,0.00,0008,Weather View 32 v70,2013-01-09 21:10:00,
2013-01-09 16:15:00,43.8,34.6,29.69,North,0,6.0,10.0,70,0.00,,,0.00,0000,Weather View 32 v70,2013-01-09 21:15:00,
2013-01-09 16:20:00,44.0,34.8,29.69,North,0,2.0,10.0,70,0.00,,,0.00,0000,Weather View 32 v70,2013-01-09 21:20:00,
2013-01-09 16:25:00,44.1,34.9,29.69,North,0,3.0,10.0,70,0.00,,,0.00,0000,Weather View 32 v70,2013-01-09 21:25:00,
2013-01-09 16:30:00,44.4,35.2,29.69,North,0,5.0,10.0,70,0.00,,,0.00,0000,Weather View 32 v70,2013-01-09 21:30:00,
2013-01-09 16:35:00,44.4,35.2,29.69,North,0,5.0,10.0,70,0.00,,,0.00,0000,Weather View 32 v70,2013-01-09 21:35:00,
2013-01-09 16:40:00,44.4,35.2,29.69,North,0,5.0,10.0,70,0.00,,,0.00,0000,Weather View 32 v70,2013-01-09 21:40:00,
2013-01-09 16:45:00,44.4,35.2,29.69,North,0,2.0,10.0,70,0.00,,,0.00,0000,Weather View 32 v70,2013-01-09 21:45:00,
2013-01-09 16:50:00,44.6,35.4,29.69,North,6,5.0,10.0,70,0.00,,,0.00,0000,Weather View 32 v70,2013-01-09 21:50:00,
2013-01-09 16:55:00,44.5,34.9,29.70,North,6,5.0,10.0,69,0.00,,,0.00,0000,Weather View 32 v70,2013-01-09 21:55:00,
2013-01-09 17:00:00,44.4,35.2,29.70,North,6,3.0,10.0,70,0.00,,,0.00,0000,Weather View 32 v70,2013-01-09 22:00:00,
2013-01-09 17:05:00,43.8,34.6,29.71,NNE,17,4.0,10.0,70,0.00,,,0.00,0000,Weather View 32 v70,2013-01-09 22:05:00,
2013-01-09 17:10:00,43.1,34.3,29.70,North,6,5.0,10.0,71,0.00,,,0.00,0000,Weather View 32 v70,2013-01-09 22:10:00,
2013-01-09 17:15:00,42.4,34.0,29.71,NNE,17,8.0,10.0,72,0.00,,,0.00,0000,Weather View 32 v70,2013-01-09 22:15:00,
2013-01-09 17:20:00,42.3,33.9,29.71,NNE,17,5.0,10.0,72,0.00,,,0.00,0000,Weather View 32 v70,2013-01-09 22:20:00,
2013-01-09 17:25:00,42.2,34.2,29.71,North,11,5.0,10.0,73,0.00,,,0.00,0000,Weather View 32 v70,2013-01-09 22:25:00,
2013-01-09 17:30:00,42.2,34.2,29.70,NNE,28,7.0,10.0,73,0.00,,,0.00,0000,Weather View 32 v70,2013-01-09 22:30:00,
2013-01-09 17:35:00,43.3,35.6,29.70,North,0,7.0,10.0,74,0.00,,,0.00,0000,Weather View 32 v70,2013-01-09 22:35:00,
2013-01-09 17:40:00,43.7,35.2,29.70,North,6,6.0,14.0,72,0.00,,,0.00,0000,Weather View 32 v70,2013-01-09 22:40:00,
2013-01-09 17:45:00,44.1,35.3,29.71,North,6,8.0,14.0,71,0.00,,,0.00,0000,Weather View 32 v70,2013-01-09 22:45:00,
2013-01-09 17:50:00,44.6,35.4,29.70,North,6,8.0,14.0,70,0.00,,,0.00,0000,Weather View 32 v70,2013-01-09 22:50:00,
2013-01-09 17:55:00,45.0,35.8,29.70,NNE,17,12.0,17.0,70,0.00,,,0.00,0000,Weather View 32 v70,2013-01-09 22:55:00,
2013-01-09 18:00:00,45.1,35.6,29.70,NNE,23,12.0,20.0,69,0.00,,,0.00,0000,Weather View 32 v70,2013-01-09 23:00:00,
2013-01-09 18:05:00,44.9,35.3,29.70,North,0,15.0,20.0,69,0.00,,,0.00,0000,Weather View 32 v70,2013-01-09 23:05:00,
2013-01-09 18:10:00,45.0,35.8,29.70,North,11,8.0,20.0,70,0.00,,,0.00,0000,Weather View 32 v70,2013-01-09 23:10:00,
2013-01-09 18:15:00,44.8,35.6,29.70,North,0,7.0,20.0,70,0.00,,,0.00,0000,Weather View 32 v70,2013-01-09 23:15:00,
2013-01-09 18:20:00,45.3,36.0,29.69,North,6,12.0,20.0,70,0.00,,,0.00,0000,Weather View 32 v70,2013-01-09 23:20:00,
2013-01-09 18:25:00,45.5,36.2,29.69,NNE,17,11.0,20.0,70,0.00,,,0.00,0000,Weather View 32 v70,2013-01-09 23:25:00,
2013-01-09 18:30:00,45.6,36.0,29.69,NNE,17,8.0,21.0,69,0.00,,,0.00,0000,Weather View 32 v70,2013-01-09 23:30:00,
2013-01-09 18:35:00,45.7,36.1,29.69,NNE,28,10.0,21.0,69,0.00,,,0.00,0000,Weather View 32 v70,2013-01-09 23:35:00,
2013-01-09 18:40:00,45.6,36.0,29.70,North,11,11.0,21.0,69,0.00,,,0.00,0000,Weather View 32 v70,2013-01-09 23:40:00,
2013-01-09 18:45:00,45.6,36.0,29.71,NE,34,11.0,21.0,69,0.00,,,0.00,0000,Weather View 32 v70,2013-01-09 23:45:00,
2013-01-09 18:50:00,45.4,35.8,29.71,NE,34,11.0,21.0,69,0.00,,,0.00,0000,Weather View 32 v70,2013-01-09 23:50:00,
2013-01-09 18:55:00,45.1,35.9,29.71,NE,45,12.0,21.0,70,0.00,,,0.00,0000,Weather View 32 v70,2013-01-09 23:55:00,
2013-01-09 19:00:00,45.0,35.8,29.71,NE,34,12.0,21.0,70,0.00,,,0.00,0000,Weather View 32 v70,2013-01-10 00:00:00,
2013-01-09 19:05:00,44.7,35.8,29.72,North,11,8.0,21.0,71,0.00,,,0.00,0000,Weather View 32 v70,2013-01-10 00:05:00,
2013-01-09 19:10:00,44.6,35.7,29.72,North,11,6.0,21.0,71,0.00,,,0.00,0000,Weather View 32 v70,2013-01-10 00:10:00,
2013-01-09 19:15:00,44.5,36.0,29.72,NNE,17,7.0,21.0,72,0.00,,,0.00,0000,Weather View 32 v70,2013-01-10 00:15:00,
2013-01-09 19:20:00,44.2,35.8,29.72,North,0,6.0,21.0,72,0.00,,,0.00,0000,Weather View 32 v70,2013-01-10 00:20:00,
2013-01-09 19:25:00,44.2,35.8,29.72,North,6,3.0,21.0,72,0.00,,,0.00,0000,Weather View 32 v70,2013-01-10 00:25:00,
2013-01-09 19:30:00,44.2,35.8,29.73,NNE,17,8.0,21.0,72,0.00,,,0.00,0000,Weather View 32 v70,2013-01-10 00:30:00,
2013-01-09 19:35:00,44.0,35.9,29.72,North,11,5.0,19.0,73,0.00,,,0.00,0000,Weather View 32 v70,2013-01-10 00:35:00,
2013-01-09 19:40:00,44.1,35.7,29.72,NNE,23,9.0,17.0,72,0.00,,,0.00,0000,Weather View 32 v70,2013-01-10 00:40:00,
2013-01-09 19:45:00,44.1,35.7,29.72,North,11,6.0,17.0,72,0.00,,,0.00,0000,Weather View 32 v70,2013-01-10 00:45:00,
2013-01-09 19:50:00,44.0,35.9,29.72,NNE,23,5.0,18.0,73,0.00,,,0.00,0000,Weather View 32 v70,2013-01-10 00:50:00,
2013-01-09 19:55:00,43.6,35.8,29.73,NNE,17,7.0,18.0,74,0.00,,,0.00,0000,Weather View 32 v70,2013-01-10 00:55:00,
2013-01-09 20:00:00,43.8,35.7,29.72,NE,34,11.0,18.0,73,0.00,,,0.00,0000,Weather View 32 v70,2013-01-10 01:00:00,
2013-01-09 20:05:00,43.9,35.4,29.71,NNE,23,15.0,21.0,72,0.00,,,0.00,0000,Weather View 32 v70,2013-01-10 01:05:00,
2013-01-09 20:10:00,44.1,35.7,29.71,NNE,17,11.0,21.0,72,0.00,,,0.00,0000,Weather View 32 v70,2013-01-10 01:10:00,
2013-01-09 20:15:00,44.5,36.0,29.71,NNE,23,8.0,21.0,72,0.00,,,0.00,0000,Weather View 32 v70,2013-01-10 01:15:00,
2013-01-09 20:20:00,44.2,35.8,29.71,NNE,17,8.0,21.0,72,0.00,,,0.00,0000,Weather View 32 v70,2013-01-10 01:20:00,
2013-01-09 20:25:00,44.6,35.7,29.71,NE,34,9.0,22.0,71,0.00,,,0.00,0000,Weather View 32 v70,2013-01-10 01:25:00,
2013-01-09 20:30:00,44.4,35.5,29.71,North,0,7.0,22.0,71,0.00,,,0.00,0000,Weather View 32 v70,2013-01-10 01:30:00,
2013-01-09 20:35:00,44.4,35.5,29.71,North,11,5.0,22.0,71,0.00,,,0.00,0000,Weather View 32 v70,2013-01-10 01:35:00,
2013-01-09 20:40:00,44.8,35.6,29.71,North,11,6.0,22.0,70,0.00,,,0.00,0000,Weather View 32 v70,2013-01-10 01:40:00,
2013-01-09 20:45:00,44.8,35.6,29.70,NNE,17,9.0,22.0,70,0.00,,,0.00,0000,Weather View 32 v70,2013-01-10 01:45:00,
2013-01-09 20:50:00,44.8,35.6,29.71,NNE,28,9.0,22.0,70,0.00,,,0.00,0000,Weather View 32 v70,2013-01-10 01:50:00,
2013-01-09 20:55:00,44.8,35.6,29.71,NE,56,19.0,22.0,70,0.00,,,0.00,0000,Weather View 32 v70,2013-01-10 01:55:00,
2013-01-09 21:00:00,44.8,35.2,29.71,North,11,8.0,22.0,69,0.00,,,0.00,0000,Weather View 32 v70,2013-01-10 02:00:00,
2013-01-09 21:05:00,44.9,35.3,29.71,NNE,17,4.0,22.0,69,0.00,,,0.00,0000,Weather View 32 v70,2013-01-10 02:05:00,
2013-01-09 21:10:00,44.8,35.2,29.71,NNE,17,8.0,22.0,69,0.00,,,0.00,0000,Weather View 32 v70,2013-01-10 02:10:00,
2013-01-09 21:15:00,44.8,35.2,29.71,NE,34,12.0,22.0,69,0.00,,,0.00,0000,Weather View 32 v70,2013-01-10 02:15:00,
2013-01-09 21:20:00,45.1,35.6,29.70,NE,34,8.0,22.0,69,0.00,,,0.00,0000,Weather View 32 v70,2013-01-10 02:20:00,
2013-01-09 21:25:00,45.1,35.2,29.71,NE,34,10.0,22.0,68,0.00,,,0.00,0000,Weather View 32 v70,2013-01-10 02:25:00,
2013-01-09 21:30:00,45.3,34.9,29.70,North,11,11.0,22.0,67,0.00,,,0.00,0000,Weather View 32 v70,2013-01-10 02:30:00,
2013-01-09 21:35:00,45.4,34.6,29.72,NE,39,12.0,22.0,66,0.00,,,0.00,0000,Weather View 32 v70,2013-01-10 02:35:00,
2013-01-09 21:40:00,45.5,34.8,29.71,NE,34,11.0,22.0,66,0.00,,,0.00,0000,Weather View 32 v70,2013-01-10 02:40:00,
2013-01-09 21:45:00,45.4,34.3,29.71,North,6,7.0,22.0,65,0.00,,,0.00,0000,Weather View 32 v70,2013-01-10 02:45:00,
2013-01-09 21:50:00,45.0,33.9,29.71,North,11,11.0,22.0,65,0.00,,,0.00,0000,Weather View 32 v70,2013-01-10 02:50:00,
2013-01-09 21:55:00,45.4,34.3,29.72,North,6,9.0,22.0,65,0.00,,,0.00,0000,Weather View 32 v70,2013-01-10 02:55:00,
2013-01-09 22:00:00,45.4,33.9,29.72,NE,34,10.0,19.0,64,0.00,,,0.00,0000,Weather View 32 v70,2013-01-10 03:00:00,
2013-01-09 22:05:00,45.0,33.9,29.72,North,11,6.0,19.0,65,0.00,,,0.00,0000,Weather View 32 v70,2013-01-10 03:05:00,
2013-01-09 22:10:00,45.0,33.9,29.73,North,0,4.0,19.0,65,0.00,,,0.00,0000,Weather View 32 v70,2013-01-10 03:10:00,
2013-01-09 22:15:00,44.9,33.8,29.73,North,6,6.0,19.0,65,0.00,,,0.00,0000,Weather View 32 v70,2013-01-10 03:15:00,
2013-01-09 22:20:00,44.8,33.7,29.73,North,11,3.0,18.0,65,0.00,,,0.00,0000,Weather View 32 v70,2013-01-10 03:20:00,
2013-01-09 22:25:00,44.7,33.6,29.72,North,11,5.0,18.0,65,0.00,,,0.00,0000,Weather View 32 v70,2013-01-10 03:25:00,
2013-01-09 22:30:00,44.9,33.8,29.72,NE,45,10.0,18.0,65,0.00,,,0.00,0000,Weather View 32 v70,2013-01-10 03:30:00,
2013-01-09 22:35:00,44.5,33.4,29.73,North,6,7.0,18.0,65,0.00,,,0.00,0000,Weather View 32 v70,2013-01-10 03:35:00,
2013-01-09 22:40:00,44.5,33.4,29.74,NE,56,11.0,18.0,65,0.00,,,0.00,0000,Weather View 32 v70,2013-01-10 03:40:00,
2013-01-09 22:45:00,44.4,33.3,29.74,NNE,28,9.0,18.0,65,0.00,,,0.00,0000,Weather View 32 v70,2013-01-10 03:45:00,
2013-01-09 22:50:00,44.1,33.1,29.74,NNE,28,10.0,17.0,65,0.00,,,0.00,0000,Weather View 32 v70,2013-01-10 03:50:00,
2013-01-09 22:55:00,44.1,33.1,29.74,NNE,17,8.0,17.0,65,0.00,,,0.00,0000,Weather View 32 v70,2013-01-10 03:55:00,
2013-01-09 23:00:00,44.0,33.0,29.74,NE,34,10.0,17.0,65,0.00,,,0.00,0000,Weather View 32 v70,2013-01-10 04:00:00,
2013-01-09 23:05:00,44.1,33.1,29.74,North,6,5.0,16.0,65,0.00,,,0.00,0000,Weather View 32 v70,2013-01-10 04:05:00,
2013-01-09 23:10:00,44.1,33.1,29.74,NE,34,9.0,16.0,65,0.00,,,0.00,0000,Weather View 32 v70,2013-01-10 04:10:00,
2013-01-09 23:15:00,44.4,32.5,29.74,NNE,17,8.0,16.0,63,0.00,,,0.00,0000,Weather View 32 v70,2013-01-10 04:15:00,
2013-01-09 23:20:00,43.9,32.5,29.75,North,11,5.0,16.0,64,0.00,,,0.00,0000,Weather View 32 v70,2013-01-10 04:20:00,
2013-01-09 23:25:00,44.1,32.7,29.75,NNE,17,8.0,16.0,64,0.00,,,0.00,0000,Weather View 32 v70,2013-01-10 04:25:00,
2013-01-09 23:30:00,43.8,32.0,29.75,NNE,28,11.0,16.0,63,0.00,,,0.00,0000,Weather View 32 v70,2013-01-10 04:30:00,
2013-01-09 23:35:00,43.9,32.1,29.75,North,11,6.0,15.0,63,0.00,,,0.00,0000,Weather View 32 v70,2013-01-10 04:35:00,
2013-01-09 23:40:00,43.9,32.1,29.76,NNE,28,8.0,15.0,63,0.00,,,0.00,0000,Weather View 32 v70,2013-01-10 04:40:00,
2013-01-09 23:45:00,43.6,31.8,29.76,NNE,17,6.0,15.0,63,0.00,,,0.00,0000,Weather View 32 v70,2013-01-10 04:45:00,
2013-01-09 23:50:00,43.7,31.5,29.75,NNE,28,8.0,15.0,62,0.00,,,0.00,0000,Weather View 32 v70,2013-01-10 04:50:00,
2013-01-09 23:55:00,43.8,31.6,29.76,NNE,23,6.0,15.0,62,0.00,,,0.00,0000,Weather View 32 v70,2013-01-10 04:55:00,